MDT,Max TemperatureF,Mean TemperatureF,Min TemperatureF,Max Dew PointF,MeanDew PointF,Min DewpointF,Max Humidity, Mean Humidity, Min Humidity, Max Sea Level PressureIn, Mean Sea Level PressureIn, Min Sea Level PressureIn, Max VisibilityMiles, Mean VisibilityMiles, Min VisibilityMiles, Max Wind SpeedMPH, Mean Wind SpeedMPH, Max Gust SpeedMPH,PrecipitationIn, CloudCover, Events, WindDirDegrees
2013-10-1,71,54,36,42,36,28,92,58,23,30.03,29.94,29.82,10,10,10,20,8,23,0.00,0,,170
2013-10-2,67,54,41,49,39,34,100,65,29,29.93,29.89,29.83,10,10,10,23,10,29,0.00,1,,21
2013-10-3,52,48,44,45,44,39,100,83,66,29.89,29.85,29.81,10,6,2,22,14,29,0.03,8,Rain-Thunderstorm,33
2013-10-4,44,38,31,45,32,28,96,91,85,30.11,29.95,29.80,10,2,0,38,26,47,0.29,8,Fog-Rain-Snow-Thunderstorm,335
2013-10-5,42,36,30,28,27,25,85,69,53,30.18,30.08,29.99,10,7,2,43,24,52,0.01,5,Snow,311
2013-10-6,60,45,30,38,33,26,89,66,42,30.19,30.17,30.14,10,10,10,25,12,32,0.00,0,,301
2013-10-7,75,51,27,45,35,25,92,59,25,30.14,29.99,29.79,10,10,10,13,6,17,0.00,0,,207
2013-10-8,80,60,40,43,37,30,82,50,17,29.78,29.73,29.65,10,10,10,17,8,21,0.00,0,,284
2013-10-9,64,51,38,46,40,35,85,69,52,29.96,29.88,29.73,10,10,10,20,12,24,0.00,0,,12
2013-10-10,60,47,33,52,43,32,96,78,60,29.91,29.66,29.30,10,10,6,26,8,35,0.32,3,Rain-Thunderstorm,15
2013-10-11,54,42,30,46,39,30,93,72,50,30.08,29.54,29.10,10,10,8,46,21,58,0.00,5,,294
2013-10-12,57,41,24,37,32,23,100,72,43,30.25,30.18,30.10,10,10,10,16,8,20,0.00,2,,204
2013-10-13,63,51,38,46,39,33,85,64,43,30.22,30.08,29.89,10,10,10,36,20,44,0.05,3,Rain-Thunderstorm,151
2013-10-14,55,45,35,52,43,29,93,84,75,30.11,29.86,29.74,10,9,4,31,20,43,0.09,8,Rain,302
2013-10-15,40,34,28,32,29,26,100,82,64,30.28,30.23,30.13,10,10,10,28,14,35,0.00,6,,328
2013-10-16,54,39,23,31,25,19,92,59,26,30.22,30.09,29.97,10,10,10,15,7,20,0.00,0,,281
2013-10-17,45,36,27,34,29,24,92,73,53,30.18,30.11,30.01,10,10,10,20,9,25,0.00,4,,329
2013-10-18,45,34,23,31,24,20,92,68,43,30.19,30.15,30.08,10,10,10,28,11,38,0.00,4,,293
2013-10-19,62,46,29,32,28,24,85,55,25,30.05,29.93,29.84,10,10,10,24,11,35,0.00,2,,277
2013-10-20,53,39,25,37,33,23,100,72,44,30.13,29.96,29.82,10,10,10,29,13,38,T,5,,315
2013-10-21,57,44,30,38,34,28,96,70,43,30.14,30.07,30.01,10,10,10,30,13,36,0.01,6,,288
2013-10-22,60,47,33,37,36,33,100,72,43,30.11,30.07,30.02,10,10,10,28,11,32,0.00,4,,312
2013-10-23,61,45,29,40,35,30,100,70,39,30.27,30.13,30.04,10,10,10,22,11,30,0.00,1,,310
2013-10-24,55,41,27,37,33,27,100,75,50,30.36,30.29,30.22,10,10,10,12,5,15,0.00,4,,201
2013-10-25,70,49,27,41,34,27,100,64,28,30.24,30.15,30.00,10,10,9,18,6,22,0.00,0,,297
2013-10-26,63,46,28,37,31,26,92,61,30,30.35,30.21,30.03,10,10,10,12,5,14,0.00,0,,280
2013-10-27,71,49,27,36,29,24,92,55,18,30.01,29.89,29.78,10,10,10,23,9,28,0.00,0,,286
2013-10-28,37,33,29,32,29,26,100,91,82,30.23,30.13,29.95,10,8,2,23,14,28,T,8,Snow,57
2013-10-29,33,32,30,31,30,28,100,95,89,30.17,30.08,29.99,10,6,2,12,5,14,0.00,8,,62
2013-10-30,51,39,26,37,33,26,100,81,61,30.01,29.86,29.76,10,9,5,17,6,21,0.01,6,,205
2013-10-31,54,42,29,36,30,26,92,64,35,29.81,29.75,29.69,10,10,6,37,15,48,0.03,4,Rain,291